Location: Table Mountain
(47.2500°N, 120.5778°W)
Time: 17:32:40
(UTC-07:00)

OTV 5 (USA 277) - Pass Details

Date: 10 October 2017
Orbit: 404 x 417 km, 43.0° (Epoch: 07 September)

Event Time Altitude Azimuth Distance (km) Brightness Sun altitude
Rises 19:49:30 0° 223° (SW) 2,342 ? -15.4°
Reaches altitude 10° 19:51:59 10° 205° (SSW) 1,482 ? -15.8°
Enters shadow 19:54:23 19° 159° (SSE) 1,043 ? -16.2°
